Regional Weather Roundup
Issued by NWS Cleveland, OH

Home | Current Version | Previous Version | Graphics & Text | Print | Product List | Glossary On
Versions: 1 2 3 4 5 6 7 8 9 10 11 12 13 14 15 16 17 18 19 20 21 22 23 24 25 26 27 28 29 30 31 32 33 34 35 36 37 38 39 40 41 42 43 44 45 46 47 48 49 50
000
ASUS41 KCLE 100210
RWRCLE
OHIO REGIONAL WEATHER ROUNDUP
NATIONAL WEATHER SERVICE WILMINGTON, OH
1000 PM EDT WED JUL 09 2014

NOTE: "FAIR" INDICATES FEW OR NO CLOUDS BELOW 12,000 FEET WITH NO
SIGNIFICANT WEATHER AND/OR OBSTRUCTIONS TO VISIBILITY.

OHZ001>008-015>018-024>027-034-035-043-044-100300-
   NORTHWEST OHIO

CITY           SKY/WX    TMP DP  RH WIND       PRES   REMARKS
DEFIANCE       CLEAR     67  55  65 NW6       30.00R
FINDLAY        MOCLDY    71  56  58 NW3       29.98R
TOLEDO EXPRESS CLEAR     70  56  61 N3        29.99R
TOLEDO METCALF CLEAR     71  56  58 N5        29.99R
LIMA           MOCLDY    72  57  59 N7        30.00R
$$

OHZ009>014-019>023-028>033-038-089-100300-
   NORTHEAST OHIO

CITY           SKY/WX    TMP DP  RH WIND       PRES   REMARKS
CLE-HOPKINS    PTCLDY    67  61  81 NE3       30.01R
CLE-LAKEFRONT  CLEAR     69  60  73 E3        29.98R
CUY CO. ARPT   PTCLDY    66  63  88 E5        30.00R
LORAIN-ELYRIA  CLEAR     69  62  78 E6        30.00R
ASHTABULA      CLEAR     61  57  87 CALM      30.02R
AKRON-CANTON   PTCLDY    67  59  75 CALM      30.00R
WOOSTER        PTCLDY    64  61  90 SE3       30.01R
MANSFIELD      CLEAR     64  62  93 CALM      30.01R
YOUNGSTOWN     MOCLDY    65  61  87 E3        30.01R
$$

OHZ042-051>053-060>062-070>072-077>081-100300-
  SOUTHWEST OHIO

CITY           SKY/WX    TMP DP  RH WIND       PRES   REMARKS
CINC-COVINGTON PTCLDY    72  59  63 W5        30.00R
CINC-LUNKEN    PTCLDY    77  60  55 NW3       29.99R
HAMILTON       CLEAR     69  63  81 CALM      30.00R
DAYTON         PTCLDY    71  59  65 W5        30.01R
WRIGHT-PAT AFB CLEAR     73  60  62 W5        30.00R
DAYTON GENERAL PTCLDY    74  61  63 W3        30.00R
WILMINGTON     PTCLDY    74  58  57 NW7       30.00R
$$

OHZ036-037-039>041-045>050-054>059-063>069-073>076-082>088-100300-
  CENTRAL AND SOUTHEAST OHIO

CITY           SKY/WX    TMP DP  RH WIND       PRES   REMARKS
COLUMBUS       PTCLDY    75  58  55 W5        29.97R
OSU AIRPORT    CLEAR     72  60  66 CALM      29.99R
BOLTON FIELD   MOCLDY    69  63  81 W3        29.99R
RICKENBACK AFB PTCLDY    74  57  54 SW5       29.98R
NEWARK         PTCLDY    70  61  73 NE3       29.99R
MARION         CLOUDY    70  65  84 N3        30.00R
LANCASTER      PTCLDY    69  62  78 CALM      29.99R
ZANESVILLE     MOCLDY    72  59  63 CALM      29.99R
NEW PHILLY     CLOUDY    70  61  73 CALM      30.00R
$$


USA.gov is the U.S. government's official web portal to all federal, state and local government web resources and services.